Time,TemperatureF,DewpointF,PressureIn,WindDirection,WindDirectionDegrees,WindSpeedMPH,WindSpeedGustMPH,Humidity,HourlyPrecipIn,Conditions,Clouds,dailyrainin,SoftwareType,DateUTC
2013-03-21 00:03:00,33.0,27.0,29.77,North,0,0.0,0.0,78,0.00,,,0.00,,2013-03-21 04:03:00,
2013-03-21 00:13:00,33.0,27.0,29.77,North,0,0.0,0.0,78,0.00,,,0.00,,2013-03-21 04:13:00,
2013-03-21 00:23:00,33.0,27.0,29.76,North,0,0.0,0.0,79,0.00,,,0.00,,2013-03-21 04:23:00,
2013-03-21 00:33:00,32.0,27.0,29.75,North,0,0.0,0.0,80,0.00,,,0.00,,2013-03-21 04:33:00,
2013-03-21 00:43:00,32.0,27.0,29.75,North,0,0.0,0.0,80,0.00,,,0.00,,2013-03-21 04:43:00,
2013-03-21 00:53:00,32.0,27.0,29.75,North,0,0.0,0.0,80,0.00,,,0.00,,2013-03-21 04:53:00,
2013-03-21 01:03:00,33.0,29.0,29.75,North,0,0.0,0.0,84,0.00,,,0.00,,2013-03-21 05:03:00,
2013-03-21 01:12:00,33.0,29.0,29.75,North,0,0.0,0.0,84,0.00,,,0.00,,2013-03-21 05:12:00,
2013-03-21 01:22:00,33.0,29.0,29.75,North,0,0.0,0.0,84,0.00,,,0.00,,2013-03-21 05:22:00,
2013-03-21 01:33:00,34.0,30.0,29.73,North,0,0.0,0.0,84,0.00,,,0.00,,2013-03-21 05:33:00,
2013-03-21 01:43:00,35.0,30.0,29.73,North,0,0.0,0.0,83,0.00,,,0.00,,2013-03-21 05:43:00,
2013-03-21 01:52:00,35.0,30.0,29.73,North,0,0.0,0.0,83,0.00,,,0.00,,2013-03-21 05:52:00,
2013-03-21 02:03:00,35.0,30.0,29.73,North,0,0.0,0.0,81,0.00,,,0.00,,2013-03-21 06:03:00,
2013-03-21 02:12:00,35.0,30.0,29.73,North,0,0.0,0.0,81,0.00,,,0.00,,2013-03-21 06:12:00,
2013-03-21 02:22:00,35.0,30.0,29.73,North,0,0.0,0.0,82,0.00,,,0.00,,2013-03-21 06:22:00,
2013-03-21 02:32:00,36.0,30.0,29.73,North,0,0.0,0.0,80,0.00,,,0.00,,2013-03-21 06:32:00,
2013-03-21 02:42:00,36.0,30.0,29.73,North,0,0.0,0.0,80,0.00,,,0.00,,2013-03-21 06:42:00,
2013-03-21 02:52:00,37.0,30.0,29.74,WNW,289,1.0,5.0,76,0.00,,,0.00,,2013-03-21 06:52:00,
2013-03-21 03:02:00,41.0,33.0,29.72,North,350,1.0,6.0,73,0.00,,,0.00,,2013-03-21 07:02:00,
2013-03-21 03:12:00,41.0,33.0,29.72,North,350,1.0,6.0,73,0.00,,,0.00,,2013-03-21 07:12:00,
2013-03-21 03:22:00,42.0,33.0,29.71,North,0,0.0,5.0,70,0.00,,,0.00,,2013-03-21 07:22:00,
2013-03-21 03:32:00,41.0,34.0,29.71,North,0,0.0,0.0,77,0.00,,,0.00,,2013-03-21 07:32:00,
2013-03-21 03:42:00,41.0,34.0,29.71,North,0,0.0,0.0,77,0.00,,,0.00,,2013-03-21 07:42:00,
2013-03-21 03:52:00,39.0,33.0,29.71,North,0,0.0,0.0,80,0.00,,,0.00,,2013-03-21 07:52:00,
2013-03-21 04:02:00,38.0,33.0,29.71,North,0,0.0,0.0,82,0.00,,,0.00,,2013-03-21 08:02:00,
2013-03-21 04:13:00,38.0,33.0,29.71,North,0,0.0,0.0,82,0.00,,,0.00,,2013-03-21 08:13:00,
2013-03-21 04:23:00,38.0,33.0,29.71,North,0,0.0,0.0,82,0.00,,,0.00,,2013-03-21 08:23:00,
2013-03-21 04:33:00,36.0,32.0,29.71,North,0,0.0,1.0,86,0.00,,,0.00,,2013-03-21 08:33:00,
2013-03-21 04:42:00,36.0,32.0,29.71,North,0,0.0,1.0,86,0.00,,,0.00,,2013-03-21 08:42:00,
2013-03-21 04:52:00,36.0,33.0,29.71,North,0,0.0,0.0,87,0.00,,,0.00,,2013-03-21 08:52:00,
2013-03-21 05:02:00,37.0,31.0,29.72,North,0,0.0,4.0,80,0.00,,,0.00,,2013-03-21 09:02:00,
2013-03-21 05:11:00,37.0,31.0,29.72,North,0,0.0,4.0,80,0.00,,,0.00,,2013-03-21 09:11:00,
2013-03-21 05:21:00,37.0,31.0,29.72,North,0,0.0,3.0,78,0.00,,,0.00,,2013-03-21 09:21:00,
2013-03-21 05:33:00,37.0,30.0,29.72,North,0,0.0,0.0,76,0.00,,,0.00,,2013-03-21 09:33:00,
2013-03-21 05:43:00,37.0,30.0,29.72,North,0,0.0,0.0,76,0.00,,,0.00,,2013-03-21 09:43:00,
2013-03-21 05:53:00,37.0,30.0,29.72,North,0,0.0,0.0,77,0.00,,,0.00,,2013-03-21 09:53:00,
2013-03-21 06:03:00,35.0,29.0,29.73,North,0,0.0,0.0,79,0.00,,,0.00,,2013-03-21 10:03:00,
2013-03-21 06:12:00,35.0,29.0,29.73,North,0,0.0,0.0,79,0.00,,,0.00,,2013-03-21 10:12:00,
2013-03-21 06:23:00,35.0,30.0,29.73,North,0,0.0,0.0,82,0.00,,,0.00,,2013-03-21 10:23:00,
2013-03-21 06:34:00,34.0,29.0,29.73,North,0,0.0,0.0,83,0.00,,,0.00,,2013-03-21 10:34:00,
2013-03-21 06:42:00,34.0,29.0,29.73,North,0,0.0,0.0,83,0.00,,,0.00,,2013-03-21 10:42:00,
2013-03-21 06:53:00,33.0,29.0,29.74,North,0,0.0,0.0,84,0.00,,,0.00,,2013-03-21 10:53:00,
2013-03-21 07:03:00,35.0,28.0,29.75,WNW,300,1.0,7.0,75,0.00,,,0.00,,2013-03-21 11:03:00,
2013-03-21 07:12:00,35.0,28.0,29.75,WNW,300,1.0,7.0,75,0.00,,,0.00,,2013-03-21 11:12:00,
2013-03-21 07:22:00,35.0,28.0,29.75,WNW,300,1.0,7.0,75,0.00,,,0.00,,2013-03-21 11:22:00,
2013-03-21 07:33:00,37.0,25.0,29.74,North,0,0.0,7.0,61,0.00,,,0.00,,2013-03-21 11:33:00,
2013-03-21 07:43:00,37.0,25.0,29.74,North,0,0.0,7.0,61,0.00,,,0.00,,2013-03-21 11:43:00,
2013-03-21 07:53:00,37.0,25.0,29.74,North,0,0.0,5.0,62,0.00,,,0.00,,2013-03-21 11:53:00,
2013-03-21 08:03:00,36.0,25.0,29.75,North,0,0.0,3.0,63,0.00,,,0.00,,2013-03-21 12:03:00,
2013-03-21 08:12:00,36.0,25.0,29.75,North,0,0.0,3.0,63,0.00,,,0.00,,2013-03-21 12:12:00,
2013-03-21 08:22:00,37.0,25.0,29.74,WNW,302,1.0,8.0,61,0.00,,,0.00,,2013-03-21 12:22:00,
2013-03-21 08:33:00,38.0,25.0,29.76,NNW,331,1.0,8.0,58,0.00,,,0.00,,2013-03-21 12:33:00,
2013-03-21 08:42:00,38.0,25.0,29.76,NNW,331,1.0,8.0,58,0.00,,,0.00,,2013-03-21 12:42:00,
2013-03-21 08:52:00,38.0,24.0,29.76,NNW,336,1.0,7.0,57,0.00,,,0.00,,2013-03-21 12:52:00,
2013-03-21 09:03:00,38.0,25.0,29.76,NNE,31,2.0,7.0,58,0.00,,,0.00,,2013-03-21 13:03:00,
2013-03-21 09:12:00,38.0,25.0,29.76,NNE,31,2.0,7.0,58,0.00,,,0.00,,2013-03-21 13:12:00,
2013-03-21 09:22:00,38.0,24.0,29.76,NW,315,3.0,7.0,57,0.00,,,0.00,,2013-03-21 13:22:00,
2013-03-21 09:32:00,37.0,21.0,29.78,NW,304,3.0,13.0,52,0.00,,,0.00,,2013-03-21 13:32:00,
2013-03-21 09:42:00,37.0,21.0,29.78,NW,304,3.0,13.0,52,0.00,,,0.00,,2013-03-21 13:42:00,
2013-03-21 09:52:00,38.0,22.0,29.78,NNE,15,3.0,8.0,52,0.00,,,0.00,,2013-03-21 13:52:00,
2013-03-21 10:02:00,38.0,22.0,29.78,NNW,335,3.0,7.0,51,0.00,,,0.00,,2013-03-21 14:02:00,
2013-03-21 10:12:00,39.0,22.0,29.78,NW,324,2.0,9.0,50,0.00,,,0.00,,2013-03-21 14:12:00,
2013-03-21 10:22:00,39.0,22.0,29.78,NW,324,2.0,9.0,50,0.00,,,0.00,,2013-03-21 14:22:00,
2013-03-21 10:32:00,41.0,22.0,29.77,NE,37,1.0,11.0,47,0.00,,,0.00,,2013-03-21 14:32:00,
2013-03-21 10:42:00,41.0,22.0,29.77,NE,37,1.0,11.0,47,0.00,,,0.00,,2013-03-21 14:42:00,
2013-03-21 10:52:00,42.0,22.0,29.78,North,3,3.0,11.0,45,0.00,,,0.00,,2013-03-21 14:52:00,
2013-03-21 11:04:00,42.0,22.0,29.78,NNW,334,4.0,10.0,44,0.00,,,0.00,,2013-03-21 15:04:00,
2013-03-21 11:12:00,41.0,21.0,29.78,NW,313,4.0,12.0,45,0.00,,,0.00,,2013-03-21 15:12:00,
2013-03-21 11:22:00,41.0,21.0,29.78,NW,313,4.0,12.0,45,0.00,,,0.00,,2013-03-21 15:22:00,
2013-03-21 11:33:00,42.0,21.0,29.78,NNE,25,4.0,9.0,43,0.00,,,0.00,,2013-03-21 15:33:00,
2013-03-21 11:42:00,42.0,21.0,29.78,NNE,25,4.0,9.0,43,0.00,,,0.00,,2013-03-21 15:42:00,
2013-03-21 11:53:00,42.0,21.0,29.78,NNE,25,4.0,9.0,43,0.00,,,0.00,,2013-03-21 15:53:00,
2013-03-21 12:03:00,41.0,20.0,29.78,NNW,330,4.0,9.0,42,0.00,,,0.00,,2013-03-21 16:03:00,
2013-03-21 12:12:00,41.0,20.0,29.78,NNW,330,4.0,9.0,42,0.00,,,0.00,,2013-03-21 16:12:00,
2013-03-21 12:23:00,43.0,20.0,29.78,NNE,25,3.0,8.0,40,0.00,,,0.00,,2013-03-21 16:23:00,
2013-03-21 12:33:00,43.0,21.0,29.77,NNW,336,2.0,9.0,41,0.00,,,0.00,,2013-03-21 16:33:00,
2013-03-21 12:42:00,43.0,21.0,29.77,NNW,336,2.0,9.0,41,0.00,,,0.00,,2013-03-21 16:42:00,
2013-03-21 12:52:00,42.0,20.0,29.76,North,357,2.0,8.0,41,0.00,,,0.00,,2013-03-21 16:52:00,
2013-03-21 13:03:00,42.0,19.0,29.77,North,8,2.0,6.0,40,0.00,,,0.00,,2013-03-21 17:03:00,
2013-03-21 13:12:00,42.0,19.0,29.77,North,8,2.0,6.0,40,0.00,,,0.00,,2013-03-21 17:12:00,
2013-03-21 13:23:00,42.0,19.0,29.77,North,8,2.0,6.0,40,0.00,,,0.00,,2013-03-21 17:23:00,
2013-03-21 13:33:00,42.0,19.0,29.77,NW,313,2.0,13.0,39,0.00,,,0.00,,2013-03-21 17:33:00,
2013-03-21 13:43:00,42.0,19.0,29.77,NW,313,2.0,13.0,39,0.00,,,0.00,,2013-03-21 17:43:00,
2013-03-21 13:52:00,43.0,18.0,29.77,NW,306,4.0,8.0,36,0.00,,,0.00,,2013-03-21 17:52:00,
2013-03-21 14:02:00,44.0,17.0,29.76,North,354,4.0,9.0,34,0.00,,,0.00,,2013-03-21 18:02:00,
2013-03-21 14:12:00,44.0,17.0,29.76,North,354,4.0,9.0,34,0.00,,,0.00,,2013-03-21 18:12:00,
2013-03-21 14:23:00,45.0,15.0,29.75,NW,315,3.0,8.0,29,0.00,,,0.00,,2013-03-21 18:23:00,
2013-03-21 14:32:00,44.0,16.0,29.75,NNE,24,2.0,9.0,32,0.00,,,0.00,,2013-03-21 18:32:00,
2013-03-21 14:42:00,45.0,18.0,29.75,West,271,2.0,11.0,33,0.00,,,0.00,,2013-03-21 18:42:00,
2013-03-21 14:52:00,45.0,18.0,29.75,West,271,2.0,11.0,33,0.00,,,0.00,,2013-03-21 18:52:00,
2013-03-21 15:02:00,45.0,18.0,29.75,WSW,243,3.0,11.0,33,0.00,,,0.00,,2013-03-21 19:02:00,
2013-03-21 15:12:00,45.0,18.0,29.75,WSW,243,3.0,11.0,33,0.00,,,0.00,,2013-03-21 19:12:00,
2013-03-21 15:22:00,43.0,17.0,29.75,WNW,282,2.0,8.0,35,0.00,,,0.00,,2013-03-21 19:22:00,
2013-03-21 15:32:00,44.0,17.0,29.75,NNW,340,3.0,11.0,33,0.00,,,0.00,,2013-03-21 19:32:00,
2013-03-21 15:43:00,44.0,17.0,29.75,NNW,340,3.0,11.0,33,0.00,,,0.00,,2013-03-21 19:43:00,
2013-03-21 15:53:00,43.0,16.0,29.75,WNW,300,3.0,13.0,33,0.00,,,0.00,,2013-03-21 19:53:00,
2013-03-21 16:02:00,42.0,16.0,29.75,North,7,5.0,10.0,34,0.00,,,0.00,,2013-03-21 20:02:00,
2013-03-21 16:12:00,42.0,16.0,29.75,North,7,5.0,10.0,34,0.00,,,0.00,,2013-03-21 20:12:00,
2013-03-21 16:22:00,42.0,14.0,29.77,NNE,29,4.0,15.0,31,0.00,,,0.00,,2013-03-21 20:22:00,
2013-03-21 16:33:00,42.0,13.0,29.77,North,2,3.0,15.0,30,0.00,,,0.00,,2013-03-21 20:33:00,
2013-03-21 16:42:00,42.0,13.0,29.77,North,2,3.0,15.0,30,0.00,,,0.00,,2013-03-21 20:42:00,
2013-03-21 16:53:00,42.0,13.0,29.77,North,2,3.0,15.0,30,0.00,,,0.00,,2013-03-21 20:53:00,
2013-03-21 17:02:00,43.0,14.0,29.78,North,8,3.0,11.0,31,0.00,,,0.00,,2013-03-21 21:02:00,
2013-03-21 17:12:00,43.0,14.0,29.78,North,8,3.0,11.0,31,0.00,,,0.00,,2013-03-21 21:12:00,
2013-03-21 17:23:00,42.0,14.0,29.79,North,0,0.0,9.0,32,0.00,,,0.00,,2013-03-21 21:23:00,
2013-03-21 17:33:00,41.0,14.0,29.80,NW,317,5.0,10.0,33,0.00,,,0.00,,2013-03-21 21:33:00,
2013-03-21 17:43:00,41.0,14.0,29.80,NW,317,5.0,10.0,33,0.00,,,0.00,,2013-03-21 21:43:00,
2013-03-21 17:53:00,41.0,15.0,29.80,North,1,4.0,11.0,34,0.00,,,0.00,,2013-03-21 21:53:00,
2013-03-21 18:03:00,41.0,15.0,29.81,NNW,336,4.0,10.0,34,0.00,,,0.00,,2013-03-21 22:03:00,
2013-03-21 18:13:00,41.0,15.0,29.81,NNW,336,4.0,10.0,34,0.00,,,0.00,,2013-03-21 22:13:00,
2013-03-21 18:23:00,40.0,14.0,29.82,NNW,336,3.0,17.0,34,0.00,,,0.00,,2013-03-21 22:23:00,
2013-03-21 18:33:00,40.0,13.0,29.82,WNW,286,3.0,11.0,33,0.00,,,0.00,,2013-03-21 22:33:00,
2013-03-21 18:43:00,40.0,13.0,29.82,WNW,286,3.0,11.0,33,0.00,,,0.00,,2013-03-21 22:43:00,
2013-03-21 18:53:00,40.0,13.0,29.82,North,5,5.0,10.0,33,0.00,,,0.00,,2013-03-21 22:53:00,
2013-03-21 19:02:00,39.0,12.0,29.83,North,8,2.0,8.0,33,0.00,,,0.00,,2013-03-21 23:02:00,
2013-03-21 19:12:00,39.0,12.0,29.83,North,8,2.0,8.0,33,0.00,,,0.00,,2013-03-21 23:12:00,
2013-03-21 19:22:00,38.0,11.0,29.84,NW,311,2.0,7.0,32,0.00,,,0.00,,2013-03-21 23:22:00,
2013-03-21 19:33:00,38.0,11.0,29.85,NNW,334,1.0,8.0,33,0.00,,,0.00,,2013-03-21 23:33:00,
2013-03-21 19:43:00,38.0,11.0,29.85,NNW,334,1.0,8.0,33,0.00,,,0.00,,2013-03-21 23:43:00,
2013-03-21 19:53:00,38.0,11.0,29.85,NNW,334,1.0,8.0,33,0.00,,,0.00,,2013-03-21 23:53:00,
2013-03-21 20:03:00,37.0,11.0,29.87,WNW,299,2.0,7.0,34,0.00,,,0.00,,2013-03-22 00:03:00,
2013-03-21 20:22:00,36.0,11.0,29.87,North,0,0.0,8.0,35,0.00,,,0.00,,2013-03-22 00:22:00,
2013-03-21 20:32:00,36.0,11.0,29.88,NW,319,3.0,9.0,35,0.00,,,0.00,,2013-03-22 00:32:00,
2013-03-21 20:42:00,36.0,11.0,29.88,NW,319,3.0,9.0,35,0.00,,,0.00,,2013-03-22 00:42:00,
2013-03-21 20:52:00,36.0,12.0,29.88,North,0,0.0,6.0,36,0.00,,,0.00,,2013-03-22 00:52:00,
2013-03-21 21:02:00,36.0,12.0,29.88,North,0,0.0,6.0,36,0.00,,,0.00,,2013-03-22 01:02:00,
2013-03-21 21:12:00,36.0,12.0,29.88,North,0,0.0,6.0,36,0.00,,,0.00,,2013-03-22 01:12:00,
2013-03-21 21:22:00,35.0,11.0,29.90,North,0,0.0,7.0,37,0.00,,,0.00,,2013-03-22 01:22:00,
2013-03-21 21:32:00,34.0,11.0,29.91,North,354,2.0,6.0,37,0.00,,,0.00,,2013-03-22 01:32:00,
2013-03-21 21:43:00,34.0,11.0,29.91,North,354,2.0,6.0,37,0.00,,,0.00,,2013-03-22 01:43:00,
2013-03-21 21:53:00,34.0,11.0,29.92,North,0,0.0,6.0,38,0.00,,,0.00,,2013-03-22 01:53:00,
2013-03-21 22:03:00,34.0,12.0,29.92,North,0,0.0,6.0,39,0.00,,,0.00,,2013-03-22 02:03:00,
2013-03-21 22:12:00,34.0,12.0,29.92,North,0,0.0,6.0,39,0.00,,,0.00,,2013-03-22 02:12:00,
2013-03-21 22:22:00,34.0,12.0,29.93,North,0,0.0,7.0,40,0.00,,,0.00,,2013-03-22 02:22:00,
2013-03-21 22:32:00,33.0,12.0,29.93,North,0,0.0,4.0,42,0.00,,,0.00,,2013-03-22 02:32:00,
2013-03-21 22:43:00,33.0,12.0,29.93,North,0,0.0,4.0,42,0.00,,,0.00,,2013-03-22 02:43:00,
2013-03-21 22:52:00,33.0,13.0,29.94,North,0,0.0,8.0,44,0.00,,,0.00,,2013-03-22 02:52:00,
2013-03-21 23:02:00,33.0,12.0,29.93,WNW,300,1.0,6.0,42,0.00,,,0.00,,2013-03-22 03:02:00,
2013-03-21 23:12:00,33.0,12.0,29.93,WNW,300,1.0,6.0,42,0.00,,,0.00,,2013-03-22 03:12:00,
2013-03-21 23:22:00,33.0,13.0,29.94,North,0,0.0,7.0,44,0.00,,,0.00,,2013-03-22 03:22:00,
2013-03-21 23:33:00,32.0,13.0,29.94,North,0,0.0,6.0,44,0.00,,,0.00,,2013-03-22 03:33:00,
2013-03-21 23:43:00,32.0,13.0,29.94,North,0,0.0,6.0,44,0.00,,,0.00,,2013-03-22 03:43:00,
2013-03-21 23:53:00,32.0,13.0,29.94,North,0,0.0,6.0,45,0.00,,,0.00,,2013-03-22 03:53:00,